GW5866 Weather Reports


time (UTC)temp
C
wind
direction
speed
KPH
gust
KPH
rain 1hr
cm
rain 24hr
cm
rain mn
cm
humidity
%
barometer
mb
20260504000015 15 308 0.0 3.2 0.00 0.00 0.00 40 1016.1
20260503234520 15 308 0.0 3.2 0.00 0.00 0.00 37 1016.0
20260503233026 15 11 0.0 4.8 0.00 0.00 0.00 36 1016.0
20260503231509 16 267 0.0 3.2 0.00 0.00 0.00 34 1015.9
20260503230013 16 9 3.2 8.0 0.00 0.00 0.00 33 1016.0
20260503224518 16 348 3.2 11.3 0.00 0.00 0.00 33 1015.9
20260503223021 16 23 1.6 12.9 0.00 0.00 0.00 33 1015.9
20260503221531 16 39 3.2 6.4 0.00 0.00 0.00 32 1015.9
20260503220015 16 17 4.8 11.3 0.00 0.00 0.00 30 1015.9
20260503214515 17 302 3.2 12.9 0.00 0.00 0.00 30 1015.9
20260503213029 17 57 4.8 20.9 0.00 0.00 0.00 29 1015.9
20260503211525 17 217 4.8 14.5 0.00 0.00 0.00 29 1015.8
20260503210009 17 305 8.0 17.7 0.00 0.00 0.00 29 1015.9
20260503204518 17 343 3.2 9.7 0.00 0.00 0.00 30 1015.8
20260503203021 17 328 6.4 14.5 0.00 0.00 0.00 29 1015.9
20260503201529 17 331 6.4 14.5 0.00 0.00 0.00 28 1016.0
20260503200033 17 24 8.0 19.3 0.00 0.00 0.00 28 1016.2
20260503194513 17 265 6.4 17.7 0.00 0.00 0.00 29 1016.4
20260503193018 17 163 4.8 22.5 0.00 0.00 0.00 30 1016.4
20260503191526 17 254 4.8 19.3 0.00 0.00 0.00 30 1016.7
20260503190025 17 279 4.8 14.5 0.00 0.00 0.00 31 1016.8
20260503184527 17 11 4.8 17.7 0.00 0.00 0.00 31 1016.9
20260503183027 17 305 3.2 14.5 0.00 0.00 0.00 34 1017.0
20260503181535 16 46 3.2 22.5 0.00 0.00 0.00 33 1017.0
20260503180022 16 261 4.8 22.5 0.00 0.00 0.00 34 1017.1
20260503174527 16 80 4.8 19.3 0.00 0.00 0.00 33 1017.2
20260503173043 16 38 3.2 16.1 0.00 0.00 0.00 36 1017.3
20260503171521 15 312 6.4 22.5 0.00 0.00 0.00 34 1017.5
20260503081524 11 342 6.4 19.3 0.00 0.00 0.00 60 1013.3
20260503071526 11 360 1.6 4.8 0.00 0.00 0.00 66 1012.8
20260503054525 11 326 0.0 3.2 0.00 0.00 0.00 65 1012.2
20260503053036 11 5 0.0 6.4 0.00 0.00 0.00 64 1012.2
20260503051529 11 360 0.0 4.8 0.00 0.00 0.00 64 1012.3
20260503050022 11 288 0.0 4.8 0.00 0.00 0.00 62 1012.4
20260503044559 11 333 0.0 3.2 0.00 0.00 0.00 63 1012.2
20260503043026 12 336 0.0 3.2 0.00 0.00 0.00 62 1012.3
20260503041530 12 352 0.0 3.2 0.00 0.00 0.00 63 1012.3
20260503040019 12 316 0.0 4.8 0.00 0.00 0.00 63 1012.4
20260503034524 12 309 0.0 3.2 0.00 0.00 0.00 63 1012.3
20260503033025 12 294 1.6 4.8 0.00 0.00 0.00 62 1012.1
20260503031528 12 346 0.0 4.8 0.00 0.00 0.00 61 1012.0
20260503030017 12 17 1.6 6.4 0.00 0.00 0.00 60 1012.2
20260503024523 12 284 1.6 6.4 0.00 0.00 0.00 59 1012.4
20260503023007 13 270 1.6 6.4 0.00 0.00 0.00 59 1012.3
20260503021517 13 352 3.2 8.0 0.00 0.00 0.00 58 1012.1
20260503020030 13 5 3.2 6.4 0.00 0.00 0.00 57 1012.2
20260503014519 13 352 6.4 16.1 0.00 0.00 0.00 56 1012.1
20260503013024 13 17 8.0 17.7 0.00 0.00 0.00 55 1012.0
20260503011507 13 360 1.6 12.9 0.00 0.00 0.00 55 1011.7
20260503010011 13 360 0.0 20.9 0.00 0.00 0.00 55 1011.8
20260503004543 13 13 4.8 16.1 0.00 0.00 0.00 1011.6
20260503003031 13 15 1.6 9.7 0.00 0.00 0.00 53 1011.6
20260503001524 13 48 4.8 17.7 0.00 0.00 0.00 53 1011.3